一网星座-0304星 (ONEWEB-0304 )

导读 | 星芒AI

ONEWEB-0304 是 OneWeb 卫星星座计划中的一颗低轨通信卫星,旨在为全球提供高速互联网服务。该卫星采用模块化设计,具备高容量和高可靠性,支持偏远和农村地区的网络连接。作为 OneWeb 扩展其卫星群的一部分,ONEWEB-0304 有助于提升全球通信覆盖范围和网络质量。

基本信息
目录编号:
49092
目录名称:
ONEWEB-0304
国际标识:
2021-075T
轨道中心:
EARTH
卫星名称:
一网星座-0304星
卫星全名:
一网星座-0304星 (ONEWEB-0304 )
卫星状态:
在轨 (已飞行1577 天)
发射日期:
2021-08-21 UTC
国别 :
英国 (GB)
星等 :
--
轨道信息
数据来源 国际轨道数据 AOE轨道数据
星历时间 2025-12-14T23:26:34+0800
1天前
查看轨道信息
2025-12-13T11:00:00+0800
2天前
查看轨道信息
半长轴 7571.848km 7571.843km
偏心率 0.0001696 0.0001566
轨道倾角 87.912° 87.914°
近地点辐角 103.382° 101.973°
升交点赤经 42.559° 42.862°
平近点角 256.750° 259.449°
近地点 1192.428km 1192.522km
远地点 1194.998km 1194.894km
周期 109.285分钟 109.285分钟
每日圈数 13.176498 13.176511
详细信息
平衡模式:
三轴稳定
覆盖范围:
全球
运营商:
一网卫星公司
运营商所在国:
英国
制造商(研发单位):
一网卫星公司
制造商所在国:
英国
使用方式:
暂无
卫星简介
OneWeb卫星网络由648颗重约125公斤的微型卫星组成,运行在1200公里的轨道上。 每颗卫星都能够提供至少每秒8千兆位的吞吐量,以使用其高吞吐量的Ku频段有效载荷为家庭和移动平台提供互联网接入。该卫星仍在工作。
2D轨道图
3D轨道图
轨道高度分析图
轨道倾角分析图
轨道综合分析图
查看轨道综合分析图